Simultaneous Nadir Overpasses (SNOs) Predictions

Prediction of SNOs between GOES-17 and NOAA-19 Satellite Orbit:

Table of predicted SNOs for the next 14.0 days since TLE Epoch: 8/26/2023
Index Date Time (GOES-17) GOES-17 Lat,Lon NOAA-19 Lat,Lon Distance(km) Time Diff (sec)
1 08/26/2023 03:38:43 -0.00,-104.68 0.12,-104.00 77.79 80
2 08/27/2023 03:26:39 -0.01,-104.68 0.81,-101.06 412.92 80
3 08/28/2023 15:58:36 0.00,-104.70 0.96,-108.72 459.02 80
4 08/29/2023 15:46:32 0.01,-104.70 0.28,-105.78 123.68 80
5 08/30/2023 15:37:08 0.01,-104.70 -0.45,-102.85 211.86 80
6 09/02/2023 03:57:15 -0.01,-104.68 -0.68,-107.63 336.67 80
7 09/03/2023 03:42:30 -0.01,-104.67 -0.04,-104.68 3.33 80
8 09/04/2023 03:30:25 -0.01,-104.67 0.66,-101.74 334.78 80
9 09/06/2023 15:50:20 0.01,-104.70 0.39,-106.48 202.45 80
10 09/07/2023 15:40:55 0.01,-104.70 -0.24,-103.53 133.24 80
11 09/08/2023 15:28:50 0.01,-104.70 -0.93,-100.59 468.91 80
